Date,TemperatureHighF,TemperatureAvgF,TemperatureLowF,DewpointHighF,DewpointAvgF,DewpointLowF,HumidityHigh,HumidityAvg,HumidityLow,PressureMaxIn,PressureMinIn,WindSpeedMaxMPH,WindSpeedAvgMPH,GustSpeedMaxMPH,PrecipitationSumIn
2013-1-1,61.0,40.6,30.0,40.0,32.3,28.0,96,76,32,30.30,30.19,2,0,0,0.00
2013-1-2,57.0,37.6,26.0,40.0,32.0,24.0,95,82,51,30.25,30.14,4,0,0,0.00
2013-1-3,58.0,38.3,26.0,43.0,32.9,24.0,95,82,52,30.28,30.18,2,0,0,0.00
2013-1-4,59.0,40.7,30.0,43.0,35.2,28.0,95,83,54,30.31,30.18,2,0,0,0.00
2013-1-5,45.0,39.4,31.0,44.0,37.5,29.0,95,93,85,30.27,30.06,1,0,0,0.00
2013-1-6,56.0,45.4,36.0,47.0,42.2,34.0,96,89,69,30.21,30.08,1,0,0,0.00
2013-1-7,61.0,44.5,33.0,51.0,40.6,31.0,96,87,65,30.27,30.14,1,0,0,0.00
2013-1-8,65.0,45.3,35.0,51.0,41.5,33.0,96,88,61,30.25,30.12,2,0,0,0.00
2013-1-9,51.0,42.4,35.0,48.0,39.8,32.0,96,91,73,30.16,29.98,4,0,0,0.00
2013-1-10,52.0,39.4,29.0,37.0,32.1,27.0,96,77,50,30.21,30.08,4,1,0,0.00
2013-1-11,55.0,40.4,32.0,42.0,34.1,28.0,90,79,55,30.26,30.11,2,0,0,0.00
2013-1-12,54.0,38.9,28.0,35.0,30.6,26.0,94,75,40,30.27,30.14,1,0,0,0.00
2013-1-13,54.0,35.6,23.0,35.0,28.1,17.0,94,77,34,30.28,30.18,2,0,0,0.00
2013-1-14,58.0,40.4,27.0,35.0,26.2,13.0,88,60,28,30.41,30.24,2,0,0,0.00
2013-1-15,55.0,37.6,27.0,35.0,30.4,25.0,94,77,45,30.50,30.40,3,0,0,0.00
2013-1-16,61.0,38.8,26.0,40.0,31.7,24.0,94,78,38,30.46,30.28,2,0,0,0.00
2013-1-17,64.0,39.4,26.0,45.0,33.4,24.0,94,81,43,30.29,30.16,2,0,0,0.00
2013-1-18,65.0,40.4,26.0,45.0,33.8,24.0,95,80,43,30.25,30.13,2,0,0,0.00
2013-1-19,64.0,40.7,26.0,43.0,33.9,24.0,94,79,45,30.27,30.15,2,0,0,0.00
2013-1-20,64.0,41.0,27.0,42.0,33.2,25.0,94,77,41,30.24,30.12,3,0,0,0.00
2013-1-21,66.0,41.3,26.0,45.0,34.2,24.0,94,79,46,30.19,30.08,3,0,0,0.00
2013-1-22,62.0,43.0,29.0,44.0,36.0,27.0,95,78,49,30.13,29.98,2,0,0,0.00
2013-1-23,50.0,47.0,44.0,47.0,44.2,39.0,95,90,83,30.09,29.96,1,0,0,0.00
2013-1-24,60.0,51.3,47.0,54.0,48.8,46.0,96,91,78,30.19,30.08,2,0,0,0.00
2013-1-25,63.0,53.4,47.0,55.0,50.1,44.0,96,89,72,30.20,30.04,3,0,0,0.00
2013-1-26,60.0,48.0,39.0,47.0,41.6,35.0,96,80,49,30.08,29.97,3,0,0,0.00
2013-1-27,58.0,44.0,31.0,39.0,34.6,29.0,95,72,43,30.19,30.07,3,1,0,0.00
2013-1-28,58.0,47.0,35.0,41.0,37.7,32.0,93,71,49,30.29,30.18,5,1,0,0.00
2013-1-29,64.0,49.5,39.0,45.0,39.7,35.0,90,71,46,30.36,30.26,4,1,0,0.00
2013-1-30,69.0,50.9,37.0,49.0,42.2,35.0,94,74,47,30.34,30.25,2,0,0,0.00
2013-1-31,67.0,50.0,32.0,49.0,42.2,30.0,95,77,50,30.31,30.18,3,0,0,0.00
2013-2-1,70.0,47.5,32.0,52.0,40.8,30.0,95,79,51,30.22,30.11,3,0,0,0.00
2013-2-2,61.0,47.2,39.0,51.0,43.4,37.0,96,87,69,30.31,30.22,2,0,0,0.00
2013-2-3,61.0,47.6,38.0,50.0,43.3,36.0,95,85,65,30.26,30.14,3,0,0,0.00
2013-2-4,55.0,44.1,38.0,49.0,41.8,36.0,100,91,78,30.19,30.07,3,0,0,0.00
2013-2-5,64.0,48.9,41.0,51.0,44.0,37.0,94,84,61,30.16,30.04,1,0,0,0.00
2013-2-6,62.0,44.4,31.0,47.0,38.1,29.0,95,80,53,30.21,30.10,2,0,0,0.00
2013-2-7,57.0,46.6,38.0,46.0,40.3,36.0,95,80,48,30.16,30.00,3,0,0,0.00
2013-2-8,60.0,44.0,32.0,40.0,35.4,30.0,95,75,36,30.03,29.93,3,1,0,0.00
2013-2-9,63.0,43.7,29.0,37.0,31.8,26.0,93,67,24,30.11,30.01,4,1,0,0.00
2013-2-10,66.0,42.5,28.0,48.0,34.7,26.0,94,76,39,30.13,30.01,4,0,0,0.00
2013-2-11,68.0,47.4,33.0,43.0,36.3,31.0,94,70,30,30.24,30.09,3,1,0,0.00
2013-2-12,63.0,45.7,33.0,47.0,40.1,31.0,95,83,52,30.37,30.23,3,0,0,0.00
2013-2-13,66.0,45.0,31.0,48.0,38.9,29.0,95,81,49,30.35,30.21,4,1,0,0.00
2013-2-14,70.0,48.5,35.0,53.0,41.0,33.0,95,78,43,30.27,30.15,4,1,0,0.00
2013-2-15,72.0,49.8,33.0,49.0,40.7,31.0,95,75,42,30.27,30.20,4,0,0,0.00
2013-2-16,72.0,49.1,36.0,50.0,41.6,34.0,95,78,37,30.25,30.06,4,1,0,0.00
2013-2-17,65.0,46.8,37.0,47.0,39.8,35.0,95,79,42,30.07,29.97,4,1,0,0.00
2013-2-18,54.0,43.9,36.0,44.0,39.1,34.0,95,84,66,30.03,29.91,2,0,0,0.00
2013-2-19,54.0,41.9,34.0,42.0,36.3,31.0,94,81,51,29.96,29.74,3,1,0,0.00
2013-2-20,61.0,43.9,28.0,39.0,33.4,26.0,94,70,37,30.07,29.86,3,1,0,0.00
2013-2-21,66.0,48.1,36.0,41.0,35.7,31.0,88,66,30,30.18,30.06,3,1,0,0.00
2013-2-22,62.0,46.9,32.0,46.0,39.0,30.0,94,76,40,30.27,30.16,5,1,0,0.00
2013-2-23,62.0,48.9,40.0,42.0,35.5,31.0,92,63,33,30.28,30.17,5,1,0,0.00
2013-2-24,70.0,49.6,36.0,40.0,33.8,25.0,87,60,20,30.28,30.15,3,1,0,0.00
2013-2-25,70.0,47.2,32.0,44.0,35.6,21.0,94,71,16,30.28,30.15,4,1,0,0.00
2013-2-26,73.0,50.1,36.0,41.0,35.2,28.0,92,61,21,30.23,30.14,4,1,0,0.00
2013-2-27,69.0,48.2,31.0,45.0,38.1,29.0,94,72,34,30.36,30.22,5,1,0,0.00
2013-2-28,70.0,54.5,43.0,56.0,48.0,41.0,94,80,60,30.45,30.36,5,1,0,0.00
2013-3-1,75.0,53.3,39.0,55.0,45.3,37.0,99,77,45,30.43,30.24,2,0,0,0.00
2013-3-2,70.0,53.7,42.0,56.0,47.2,40.0,95,80,55,30.25,30.05,3,0,0,0.00
2013-3-3,66.0,53.0,47.0,52.0,47.0,43.0,90,81,56,30.09,30.01,6,2,0,0.00
2013-3-4,58.0,47.4,39.0,47.0,42.9,36.0,93,84,68,30.15,30.06,3,1,0,0.00
2013-3-5,54.0,44.8,33.0,46.0,40.2,31.0,95,84,70,30.08,29.78,8,2,0,0.00
2013-3-6,57.0,48.7,39.0,48.0,42.0,36.0,93,79,55,30.06,29.78,8,2,0,0.00
2013-3-7,57.0,44.5,34.0,44.0,37.9,32.0,95,80,50,30.01,29.87,4,0,0,0.00
2013-3-8,67.0,47.7,33.0,47.0,39.0,31.0,99,74,35,30.03,29.84,2,0,0,0.00
2013-3-9,74.0,50.1,33.0,49.0,39.7,31.0,95,72,29,30.32,30.03,3,0,0,0.00
2013-3-10,72.0,50.0,34.0,49.0,40.4,32.0,95,74,29,30.35,30.23,5,1,0,0.00
2013-3-11,72.0,50.1,36.0,50.0,42.5,34.0,95,78,40,30.27,30.10,4,1,0,0.00
2013-3-12,73.0,51.7,40.0,56.0,45.4,38.0,95,81,49,30.17,30.06,5,1,0,0.00
2013-3-13,82.0,55.3,40.0,59.0,47.2,38.0,96,78,41,30.17,30.05,3,0,0,0.00
2013-3-14,70.0,53.8,43.0,57.0,47.3,41.0,95,80,56,30.17,30.09,4,1,0,0.00
2013-3-15,73.0,53.3,40.0,56.0,46.2,38.0,95,79,47,30.14,30.02,4,1,0,0.00
2013-3-16,76.0,55.9,38.0,55.0,42.6,34.0,95,67,22,30.12,30.01,6,1,0,0.00
2013-3-17,70.0,54.1,41.0,48.0,41.3,35.0,85,64,30,30.15,30.03,5,1,0,0.00
2013-3-18,67.0,50.3,37.0,48.0,42.0,35.0,95,76,47,30.12,30.02,4,1,0,0.00
2013-3-19,62.0,50.5,42.0,50.0,44.3,40.0,94,80,56,30.13,30.05,1,0,0,0.00
2013-3-20,60.0,51.0,45.0,56.0,48.4,43.0,95,91,80,30.14,30.06,2,0,0,0.00
2013-3-21,69.0,51.1,36.0,48.0,41.7,34.0,95,73,41,30.14,30.00,3,1,0,0.00
2013-3-22,72.0,54.0,42.0,40.0,35.5,29.0,77,54,23,30.14,30.02,3,1,0,0.00
2013-3-23,70.0,51.4,36.0,44.0,38.2,33.0,92,65,31,30.15,30.03,4,1,0,0.00
2013-3-24,70.0,50.5,37.0,51.0,42.3,35.0,95,76,42,30.09,29.96,6,1,0,0.00
2013-3-25,58.0,47.7,39.0,48.0,42.5,37.0,95,83,62,30.04,29.94,4,1,0,0.00
2013-3-26,64.0,49.7,40.0,50.0,43.8,38.0,95,81,55,30.01,29.93,4,1,0,0.00
2013-3-27,62.0,51.2,43.0,53.0,47.0,41.0,94,86,69,30.02,29.95,3,0,0,0.00
2013-3-28,65.0,54.1,47.0,55.0,50.0,45.0,95,86,70,30.09,30.01,2,0,0,0.00
2013-3-29,77.0,57.5,48.0,59.0,51.2,47.0,95,81,47,30.10,30.01,3,1,0,0.00
2013-3-30,68.0,55.5,49.0,56.0,49.5,-99.9,93,84,63,30.08,30.00,3,0,0,0.00
2013-3-31,61.0,54.8,51.0,56.0,52.4,49.0,95,92,77,30.07,30.00,2,0,0,0.00
2013-4-1,66.0,55.5,49.0,55.0,51.2,46.0,96,86,64,30.15,30.05,4,0,0,0.00
2013-4-2,66.0,51.5,44.0,57.0,48.0,42.0,95,88,69,30.20,30.09,5,1,0,0.00
2013-4-3,75.0,53.6,47.0,59.0,49.2,45.0,95,86,55,30.14,29.98,4,1,0,0.00
2013-4-4,59.0,52.9,48.0,57.0,51.0,46.0,96,93,88,30.12,29.98,3,1,0,0.00
2013-4-5,67.0,56.4,52.0,56.0,52.2,49.0,96,86,66,30.19,30.11,2,0,0,0.00
2013-4-6,67.0,56.4,51.0,57.0,51.8,48.0,94,85,69,30.19,30.11,4,1,0,0.00
2013-4-7,65.0,55.4,49.0,54.0,49.9,45.0,94,82,61,30.17,29.82,2,1,0,0.00
2013-4-8,70.0,55.2,45.0,45.0,38.8,35.0,88,57,31,30.06,29.81,5,3,0,0.00
2013-4-9,80.0,60.9,46.0,46.0,41.0,36.0,78,53,22,30.13,30.03,2,1,0,0.00
2013-4-10,87.0,65.5,46.0,63.0,49.2,42.0,89,59,26,30.18,30.01,3,1,0,0.00
2013-4-11,80.0,61.6,47.0,54.0,47.4,42.0,85,62,32,30.05,29.83,4,1,0,0.00
2013-4-12,72.0,54.2,41.0,55.0,46.3,39.0,95,76,49,29.92,29.81,5,1,0,0.00
2013-4-13,77.0,58.0,42.0,54.0,43.2,37.0,93,62,34,29.90,29.80,4,1,0,0.00
2013-4-14,72.0,56.9,42.0,48.0,39.2,27.0,83,54,24,29.93,29.84,5,2,0,0.00
2013-4-15,63.0,50.4,40.0,44.0,36.2,30.0,94,62,33,29.97,29.86,6,2,0,0.00
2013-4-16,72.0,54.8,41.0,40.0,34.0,27.0,73,49,20,30.18,29.97,3,1,0,0.00
2013-4-17,76.0,56.9,39.0,45.0,35.2,21.0,85,51,14,30.28,30.16,3,1,0,0.00
2013-4-18,79.0,58.9,42.0,49.0,42.1,38.0,86,59,26,30.26,30.17,4,1,0,0.00
2013-4-19,79.0,59.9,42.0,58.0,47.3,40.0,94,67,32,30.23,30.06,4,1,0,0.00
2013-4-20,82.0,62.7,46.0,52.0,45.7,41.0,84,57,28,30.11,29.96,5,1,0,0.00
2013-4-21,86.0,61.8,42.0,58.0,47.6,40.0,94,65,27,30.03,29.91,3,1,0,0.00
2013-4-22,92.0,66.6,47.0,57.0,49.9,44.0,94,62,19,29.97,29.84,4,1,0,0.00
2013-4-23,84.0,62.2,46.0,52.0,41.9,24.0,91,55,12,29.92,29.86,4,1,0,0.00
2013-4-24,62.0,51.5,45.0,50.0,45.7,43.0,93,81,64,29.97,29.84,4,1,0,0.00
2013-4-25,66.0,54.5,49.0,52.0,46.8,44.0,86,76,59,30.13,29.96,4,0,0,0.00
2013-4-26,68.0,52.5,43.0,55.0,47.1,41.0,93,83,64,30.24,30.12,4,1,0,0.00
2013-4-27,71.0,54.2,46.0,57.0,48.3,43.0,94,82,57,30.24,30.07,5,1,0,0.00
2013-4-28,85.0,61.2,40.0,60.0,49.5,38.0,95,70,37,30.07,29.86,2,1,0,0.00
2013-4-29,87.0,68.8,50.0,62.0,52.0,47.0,93,60,32,29.90,29.75,4,1,0,0.00
2013-4-30,88.0,68.6,47.0,48.0,42.7,33.0,90,46,16,29.87,29.77,2,1,0,0.00
2013-5-1,91.0,70.9,51.0,47.0,30.7,14.0,61,28,6,30.08,29.85,3,1,0,0.00
2013-5-2,94.0,66.8,43.0,47.0,39.0,28.0,88,46,12,30.15,30.06,2,0,0,0.00
2013-5-3,90.0,63.9,43.0,54.0,43.9,38.0,87,54,20,30.07,29.80,4,1,0,0.00
2013-5-4,89.0,62.3,45.0,56.0,48.2,42.0,92,65,23,29.80,29.57,3,0,0,0.00
2013-5-5,64.0,57.6,52.0,52.0,49.5,48.0,88,74,62,29.83,29.62,4,1,0,0.00
2013-5-6,71.0,59.2,50.0,55.0,50.7,47.0,92,74,50,29.98,29.82,2,0,0,0.00
2013-5-7,74.0,59.9,50.0,56.0,51.7,47.0,93,76,49,30.04,29.97,4,1,0,0.00
2013-5-8,65.0,54.4,50.0,55.0,49.3,47.0,92,83,69,30.14,30.03,4,1,0,0.00
2013-5-9,69.0,55.9,48.0,56.0,49.5,45.0,92,80,61,30.16,30.07,4,2,0,0.00
2013-5-10,70.0,56.3,50.0,58.0,48.7,-99.9,92,80,62,30.18,30.09,4,1,0,0.00
2013-5-11,84.0,58.9,49.0,63.0,50.4,-99.9,95,79,46,30.15,30.04,3,1,0,0.00
2013-5-12,78.0,60.0,48.0,62.0,52.1,46.0,94,77,55,30.14,30.01,6,2,0,0.00
2013-5-13,83.0,62.5,49.0,64.0,53.0,47.0,95,74,50,30.08,29.93,4,1,0,0.00
2013-5-14,82.0,63.5,48.0,57.0,50.2,45.0,90,65,40,29.97,29.86,5,2,0,0.00
2013-5-15,82.0,60.8,45.0,53.0,47.2,41.0,92,64,36,30.02,29.95,4,1,0,0.00
2013-5-16,76.0,57.6,52.0,55.0,33.9,-99.9,83,67,42,30.01,29.93,2,1,0,0.00
2013-5-17,75.0,57.3,42.0,51.0,41.5,-99.9,94,67,37,30.06,29.96,3,1,0,0.00
2013-5-18,84.0,61.7,41.0,53.0,45.9,39.0,94,62,30,30.13,30.04,4,1,0,0.00
2013-5-19,88.0,66.6,46.0,51.0,46.0,42.0,87,53,23,30.13,29.96,3,1,0,0.00
2013-5-20,90.0,65.1,49.0,53.0,47.3,39.0,89,61,18,29.99,29.89,5,1,0,0.00
2013-5-21,76.0,59.8,46.0,49.0,42.5,36.0,91,58,24,30.00,29.90,4,2,0,0.00
2013-5-22,74.0,57.8,45.0,44.0,35.6,31.0,61,45,24,30.04,29.88,5,2,0,0.00
2013-5-23,74.0,58.0,41.0,46.0,41.0,36.0,85,57,30,30.00,29.91,3,1,0,0.00
2013-5-24,77.0,57.3,39.0,48.0,42.8,36.0,92,63,31,29.99,29.90,4,1,0,0.00
2013-5-25,75.0,57.7,41.0,51.0,45.0,38.0,92,65,40,30.03,29.94,5,1,0,0.00
2013-5-26,77.0,60.9,48.0,55.0,49.2,45.0,93,68,43,30.11,30.02,2,0,0,0.00
2013-5-27,66.0,56.2,48.0,57.0,50.7,44.0,93,82,70,30.10,29.99,1,0,0,0.00
2013-5-28,76.0,62.3,55.0,59.0,54.5,49.0,95,78,53,30.00,29.91,3,1,0,0.00
2013-5-29,80.0,65.5,55.0,58.0,52.8,47.0,86,66,41,29.96,29.86,3,1,0,0.00
2013-5-30,86.0,63.2,43.0,52.0,46.1,40.0,94,60,25,29.98,29.90,3,0,0,0.00
2013-5-31,93.0,67.3,46.0,55.0,48.5,42.0,91,57,22,30.01,29.88,4,1,0,0.00
2013-6-1,92.0,71.5,49.0,60.0,51.1,45.0,87,53,28,29.92,29.75,3,0,0,0.00
2013-6-2,82.0,65.2,51.0,56.0,50.2,45.0,83,61,37,29.77,29.63,5,1,0,0.00
2013-6-3,71.0,57.9,47.0,55.0,50.1,45.0,94,76,55,29.88,29.70,2,0,0,0.00
2013-6-4,67.0,57.3,53.0,54.0,50.6,49.0,86,79,63,29.98,29.86,4,0,0,0.00
2013-6-5,71.0,58.3,52.0,55.0,50.7,48.0,88,77,57,30.00,29.92,4,1,0,0.00
2013-6-6,76.0,58.0,51.0,58.0,50.9,47.0,91,79,52,29.96,29.85,5,1,0,0.00
2013-6-7,87.0,64.0,50.0,64.0,53.5,48.0,94,73,41,29.89,29.70,4,1,0,0.00
2013-6-8,90.0,66.0,53.0,65.0,54.7,50.0,90,70,42,29.84,29.70,3,0,0,0.00
2013-6-9,68.0,59.1,55.0,56.0,53.1,52.0,90,81,65,29.89,29.83,2,0,0,0.00
2013-6-10,62.0,58.1,54.0,56.0,53.6,52.0,94,85,72,29.96,29.80,2,0,0,0.00
2013-6-11,80.0,64.2,54.0,60.0,54.1,48.0,91,72,47,29.98,29.87,3,1,0,0.00
2013-6-12,87.0,63.6,43.0,53.0,44.7,32.0,95,58,15,29.98,29.89,4,1,0,0.00
2013-6-13,89.0,65.4,43.0,50.0,44.9,39.0,91,53,22,30.08,29.98,3,1,0,0.00
2013-6-14,88.0,66.2,50.0,52.0,47.6,41.0,84,56,22,29.99,29.80,4,1,0,0.00
2013-6-15,79.0,59.4,44.0,55.0,49.0,42.0,94,71,42,29.97,29.82,6,1,0,0.00
2013-6-16,91.0,66.1,45.0,56.0,49.1,43.0,93,60,27,30.06,29.97,3,1,0,0.00
2013-6-17,83.0,65.0,49.0,58.0,51.4,45.0,88,64,41,30.08,29.98,2,1,0,0.00
2013-6-18,76.0,62.5,49.0,54.0,49.0,45.0,91,65,38,30.01,29.93,2,0,0,0.00
2013-6-19,82.0,64.4,47.0,53.0,46.8,39.0,85,57,26,30.04,29.96,2,0,0,0.00
2013-6-20,83.0,59.9,46.0,52.0,46.1,42.0,88,64,28,30.01,29.92,4,0,0,0.00
2013-6-21,89.0,84.2,80.0,53.0,49.8,47.0,39,31,24,29.93,29.86,3,2,0,0.00
2013-6-22,91.0,79.1,48.0,55.0,51.3,44.0,87,41,22,29.92,29.80,6,2,0,0.00
2013-6-23,70.0,62.0,55.0,60.0,55.3,51.0,89,79,69,29.85,29.80,3,2,0,0.00
2013-6-24,63.0,58.6,56.0,58.0,55.1,53.0,94,88,80,29.89,29.78,2,1,0,0.00
2013-6-25,64.0,61.0,58.0,63.0,59.6,56.0,95,95,94,29.97,29.86,2,1,0,0.00
2013-6-26,82.0,68.0,60.0,67.0,62.2,57.0,96,83,56,30.05,29.96,2,0,0,0.00
2013-6-27,93.0,71.0,57.0,68.0,60.4,56.0,95,73,40,30.08,29.98,3,1,0,0.00
2013-6-28,95.0,74.6,57.0,70.0,61.5,54.0,95,68,42,30.02,29.86,3,1,0,0.00
2013-6-29,100.0,78.5,57.0,67.0,60.2,53.0,89,58,31,29.90,29.76,3,1,0,0.00
2013-6-30,90.0,73.3,56.0,65.0,57.6,51.0,85,61,36,29.83,29.73,4,1,0,0.00
2013-7-1,96.0,70.3,54.0,67.0,57.5,51.0,92,67,36,29.82,29.78,4,1,0,0.00
2013-7-2,91.0,70.5,58.0,67.0,58.2,54.0,88,67,42,29.91,29.80,3,1,0,0.00
2013-7-3,87.0,69.1,56.0,66.0,58.0,54.0,93,70,46,29.91,29.75,4,1,0,0.00
2013-7-4,97.0,76.8,61.0,65.0,57.7,45.0,82,56,19,29.80,29.64,4,1,0,0.00
2013-7-5,83.0,65.9,54.0,59.0,52.2,47.0,84,63,43,29.74,29.67,4,2,0,0.00
2013-7-6,77.0,59.4,50.0,60.0,51.9,47.0,93,78,52,29.79,29.72,3,1,0,0.00
2013-7-7,77.0,60.2,52.0,60.0,52.8,49.0,91,78,52,29.87,29.78,3,1,0,0.00
2013-7-8,80.0,58.8,52.0,61.0,51.1,-99.9,91,80,49,29.98,29.86,2,0,0,0.00
2013-7-9,93.0,64.9,50.0,62.0,53.1,48.0,94,71,31,30.04,29.92,3,1,0,0.00
2013-7-10,77.0,58.8,50.0,58.0,49.2,-99.9,92,75,46,29.99,29.90,4,1,0,0.00
2013-7-11,73.0,57.0,50.0,57.0,50.6,47.0,92,81,56,29.96,29.86,3,1,0,0.00
2013-7-12,77.0,59.5,52.0,58.0,51.8,49.0,91,77,51,29.95,29.85,3,1,0,0.00
2013-7-13,82.0,62.2,46.0,60.0,52.0,44.0,95,73,44,29.95,29.89,4,1,0,0.00
2013-7-14,77.0,60.0,51.0,59.0,52.0,49.0,92,77,51,30.00,29.89,3,1,0,0.00
2013-7-15,69.0,55.7,49.0,55.0,50.2,46.0,92,83,61,29.93,29.85,3,1,0,0.00
2013-7-16,68.0,58.3,53.0,57.0,52.5,50.0,91,81,68,30.02,29.87,2,0,0,0.00
2013-7-17,77.0,60.1,49.0,61.0,53.4,47.0,94,80,55,30.09,30.01,4,1,0,0.00
2013-7-18,79.0,60.8,53.0,60.0,53.7,50.0,94,80,49,30.06,29.92,5,1,0,0.00
2013-7-19,83.0,61.6,51.0,63.0,53.3,49.0,94,77,47,29.95,29.81,5,1,0,0.00
2013-7-20,85.0,60.6,51.0,63.0,51.6,-99.9,94,77,43,29.85,29.72,4,1,0,0.00
2013-7-21,80.0,62.4,52.0,61.0,53.0,48.0,91,74,47,29.89,29.77,1,0,0,0.00
2013-7-22,85.0,63.5,50.0,63.0,54.7,48.0,93,75,46,29.97,29.89,2,0,0,0.00
2013-7-23,77.0,64.6,57.0,61.0,55.9,53.0,88,75,52,29.99,29.93,2,1,0,0.00
2013-7-24,82.0,64.1,54.0,61.0,55.0,51.0,94,75,46,29.99,29.89,3,1,0,0.00
2013-7-25,76.0,60.4,52.0,59.0,52.9,49.0,93,78,53,30.02,29.92,5,2,0,0.00
2013-7-26,75.0,57.4,52.0,59.0,51.8,49.0,92,83,56,30.10,30.00,4,1,0,0.00
2013-7-27,76.0,59.4,52.0,59.0,52.9,50.0,92,80,55,30.03,29.87,3,1,0,0.00
2013-7-28,73.0,57.7,52.0,58.0,51.8,49.0,93,82,58,29.88,29.80,2,0,0,0.00
2013-7-29,73.0,58.4,54.0,59.0,52.0,49.0,89,80,59,30.02,29.84,2,0,0,0.00
2013-7-30,73.0,58.4,53.0,58.0,52.3,50.0,92,81,59,30.11,30.01,3,0,0,0.00
2013-7-31,77.0,61.3,52.0,59.0,53.2,50.0,93,77,52,30.09,29.95,4,1,0,0.00
2013-8-1,79.0,61.8,45.0,56.0,51.4,43.0,95,71,43,30.04,29.92,4,1,0,0.00
2013-8-2,84.0,63.0,47.0,56.0,50.9,45.0,94,69,37,29.97,29.86,4,1,0,0.00
2013-8-3,77.0,58.9,49.0,58.0,51.5,46.0,94,79,51,29.97,29.91,3,1,0,0.00
2013-8-4,73.0,57.6,51.0,57.0,51.3,48.0,93,81,55,30.01,29.94,4,1,0,0.00
2013-8-5,73.0,58.1,51.0,58.0,51.3,48.0,91,80,55,30.03,29.93,3,1,0,0.00
2013-8-6,73.0,59.1,52.0,57.0,52.0,49.0,92,78,56,30.04,29.98,3,1,0,0.00
2013-8-7,71.0,61.0,54.0,58.0,54.2,51.0,91,79,64,30.09,30.03,1,0,0,0.00
2013-8-8,73.0,60.2,52.0,60.0,53.7,50.0,93,80,59,30.03,29.93,3,1,0,0.00
2013-8-9,73.0,58.3,53.0,59.0,52.7,50.0,93,83,59,29.98,29.92,3,1,0,0.00
2013-8-10,75.0,61.1,55.0,60.0,54.5,52.0,91,80,58,30.05,29.98,3,1,0,0.00
2013-8-11,77.0,60.9,53.0,61.0,54.4,51.0,94,81,54,30.02,29.92,5,2,0,0.00
2013-8-12,81.0,60.5,52.0,61.0,53.1,50.0,94,79,46,30.00,29.92,4,1,0,0.00
2013-8-13,89.0,65.0,53.0,61.0,52.6,-99.9,93,71,33,29.99,29.88,4,1,0,0.00
2013-8-14,91.0,65.9,47.0,61.0,53.6,45.0,94,69,32,29.97,29.85,5,1,0,0.00
2013-8-15,87.0,61.7,52.0,67.0,44.2,-99.9,95,72,48,29.94,29.88,4,1,0,0.00
2013-8-16,89.0,65.9,56.0,66.0,54.9,-99.9,95,75,41,29.97,29.91,5,1,0,0.00
2013-8-17,87.0,67.0,51.0,62.0,54.2,-99.9,95,69,41,29.97,29.81,4,1,0,0.00
2013-8-18,92.0,69.9,53.0,65.0,57.1,50.0,93,67,39,29.87,29.75,4,1,0,0.00
2013-8-19,87.0,64.8,57.0,64.0,48.4,-99.9,88,69,39,29.88,29.78,2,0,0,0.00
2013-8-20,82.0,63.5,58.0,63.0,55.8,-99.9,92,80,50,29.90,29.82,2,0,0,0.00
2013-8-21,77.0,62.0,54.0,60.0,54.6,50.0,88,78,51,29.95,29.86,2,0,0,0.00
2013-8-22,75.0,60.9,52.0,59.0,53.7,49.0,93,79,56,29.98,29.88,3,1,0,0.00
2013-8-23,77.0,62.9,54.0,60.0,54.7,51.0,91,76,54,29.92,29.77,5,1,0,0.00
2013-8-24,84.0,64.1,50.0,62.0,53.2,-99.9,94,72,44,29.87,29.80,5,1,0,0.00
2013-8-25,79.0,66.3,58.0,65.0,58.6,54.0,89,77,58,29.93,29.85,2,1,0,0.00
2013-8-26,85.0,66.6,56.0,61.0,56.6,52.0,93,73,38,30.00,29.87,4,1,0,0.00
2013-8-27,83.0,58.1,49.0,58.0,51.3,47.0,95,81,43,29.89,29.84,2,0,0,0.00
2013-8-28,83.0,72.9,61.0,66.0,61.9,57.0,90,70,54,29.93,29.86,3,2,0,0.00
2013-8-29,86.0,68.4,60.0,66.0,60.6,57.0,93,78,50,30.05,29.93,4,1,0,0.00
2013-8-30,94.0,69.3,54.0,65.0,58.6,52.0,95,73,36,30.02,29.88,5,1,0,0.00
2013-8-31,84.0,63.9,51.0,62.0,53.6,-99.9,93,74,43,29.96,29.86,5,1,0,0.00
2013-9-1,83.0,65.4,54.0,62.0,56.5,52.0,94,75,46,29.94,29.85,3,1,0,0.00
2013-9-2,85.0,67.6,55.0,64.0,59.0,53.0,94,76,49,29.94,29.86,3,0,0,0.00
2013-9-3,85.0,66.4,50.0,59.0,54.8,48.0,95,71,37,29.98,29.88,3,0,0,0.00
2013-9-4,86.0,66.3,49.0,61.0,55.2,47.0,95,71,39,30.02,29.90,2,0,0,0.00
2013-9-5,88.0,66.8,50.0,60.0,53.9,48.0,95,67,36,29.98,29.91,1,0,0,0.00
2013-9-6,96.0,70.3,49.0,59.0,51.3,46.0,93,58,20,29.97,29.82,2,0,0,0.00
2013-9-7,98.0,70.5,49.0,55.0,49.1,-99.9,91,56,16,29.86,29.78,3,1,0,0.00
2013-9-8,89.0,65.4,53.0,62.0,53.6,49.0,94,71,34,29.87,29.75,3,1,0,0.00
2013-9-9,92.0,64.4,49.0,62.0,53.5,47.0,94,72,34,29.81,29.69,4,1,0,0.00
2013-9-10,75.0,62.4,56.0,62.0,57.3,53.0,92,84,64,29.90,29.72,2,0,0,0.00
2013-9-11,70.0,63.8,61.0,61.0,58.9,57.0,92,84,70,29.99,29.90,0,0,0,0.00
2013-9-12,79.0,65.1,57.0,64.0,58.3,54.0,92,80,57,29.98,29.86,3,1,0,0.00
2013-9-13,79.0,62.1,55.0,62.0,55.2,52.0,94,80,50,29.90,29.73,5,1,0,0.00
2013-9-14,79.0,61.2,54.0,61.0,53.0,-99.9,93,78,52,29.82,29.70,5,1,0,0.00
2013-9-15,82.0,64.6,52.0,60.0,55.3,49.0,94,75,46,29.85,29.75,3,1,0,0.00
2013-9-16,88.0,65.5,52.0,62.0,55.4,50.0,95,74,37,29.89,29.74,5,1,0,0.00
2013-9-17,82.0,65.1,49.0,57.0,51.2,47.0,94,65,37,29.87,29.79,5,1,0,0.00
2013-9-18,65.0,59.5,56.0,50.0,48.4,47.0,73,67,56,29.88,29.82,1,0,0,0.00
2013-9-19,91.0,63.1,45.0,53.0,47.2,38.0,92,64,18,29.86,29.73,3,0,0,0.00
2013-9-20,79.0,59.4,42.0,62.0,52.7,40.0,95,80,54,29.84,29.77,2,0,0,0.00
2013-9-21,73.0,61.3,53.0,61.0,55.1,-99.9,95,83,56,29.89,29.77,2,0,0,0.00
2013-9-22,78.0,60.2,45.0,57.0,51.3,43.0,95,75,40,29.99,29.88,1,0,0,0.00
2013-9-23,87.0,64.9,48.0,63.0,54.6,46.0,95,73,41,30.02,29.90,3,0,0,0.00
2013-9-24,81.0,63.0,51.0,56.0,51.7,47.0,95,70,35,29.97,29.87,3,1,0,0.00
2013-9-25,74.0,59.7,45.0,50.0,45.0,41.0,92,62,32,29.94,29.80,4,1,0,0.00
2013-9-26,81.0,62.3,46.0,45.0,41.9,37.0,76,51,22,29.99,29.84,2,0,0,0.00
2013-9-27,82.0,61.8,44.0,49.0,42.0,35.0,89,55,19,30.09,29.99,2,0,0,0.00
2013-9-28,83.0,60.5,42.0,55.0,44.1,-99.9,92,63,22,30.09,29.99,3,0,0,0.00
2013-9-29,73.0,61.4,52.0,62.0,56.9,49.0,93,86,69,30.09,30.03,2,0,0,0.00
2013-9-30,74.0,64.1,59.0,65.0,60.0,52.0,95,87,70,30.05,29.96,3,1,0,0.00
2013-10-1,78.0,66.0,57.0,50.0,48.3,47.0,72,55,35,29.94,29.89,2,0,0,0.00
2013-10-2,82.0,61.0,46.0,52.0,44.8,35.0,93,61,19,30.02,29.91,4,1,0,0.00
2013-10-3,78.0,63.1,46.0,41.0,34.8,22.0,76,40,13,30.09,29.96,3,1,0,0.00
2013-10-4,85.0,71.2,53.0,36.0,27.6,22.0,53,21,11,30.08,30.01,2,1,0,0.00
2013-10-5,88.0,62.6,39.0,42.0,35.8,29.0,82,45,13,30.19,30.08,2,0,0,0.00
2013-10-6,87.0,60.2,39.0,43.0,38.3,33.0,86,51,15,30.13,29.99,0,0,0,0.00
2013-10-7,85.0,59.5,40.0,48.0,40.2,31.0,86,56,15,30.00,29.84,3,0,0,0.00
2013-10-8,81.0,58.4,40.0,50.0,43.9,37.0,93,63,30,29.91,29.70,2,0,0,0.00
2013-10-9,76.0,59.2,46.0,46.0,43.1,41.0,82,58,32,29.75,29.61,2,0,0,0.00
2013-10-10,74.0,55.5,43.0,52.0,44.7,39.0,91,70,37,30.01,29.75,2,0,0,0.00
2013-10-11,68.0,51.8,44.0,52.0,46.0,41.0,95,83,50,30.10,29.97,3,0,0,0.00
2013-10-12,71.0,51.6,40.0,52.0,42.9,-99.9,95,77,50,30.02,29.88,4,1,0,0.00
2013-10-13,78.0,55.4,38.0,49.0,43.3,36.0,93,68,32,30.06,29.92,2,0,0,0.00
2013-10-14,83.0,56.1,37.0,47.0,40.5,35.0,94,63,21,30.12,29.98,1,0,0,0.00
2013-10-15,89.0,58.0,37.0,45.0,37.3,32.0,91,55,13,30.05,29.93,1,0,0,0.00
2013-10-16,86.0,57.1,36.0,43.0,36.8,33.0,89,55,16,30.09,29.99,1,0,0,0.00
2013-10-17,86.0,57.1,37.0,45.0,38.1,33.0,88,57,18,30.09,29.94,2,0,0,0.00
2013-10-18,82.0,54.4,37.0,49.0,42.3,35.0,94,70,27,30.06,29.97,2,0,0,0.00
2013-10-19,87.0,55.6,36.0,48.0,40.1,-99.9,94,66,18,30.09,29.97,1,0,0,0.00
2013-10-20,80.0,53.3,39.0,52.0,44.2,37.0,95,76,32,30.03,29.90,3,1,0,0.00
2013-10-21,75.0,53.0,45.0,55.0,46.9,43.0,95,82,47,30.01,29.90,2,0,0,0.00
2013-10-22,79.0,53.1,44.0,54.0,46.7,42.0,95,82,42,30.03,29.91,3,1,0,0.00
2013-10-23,74.0,51.9,44.0,55.0,46.3,42.0,95,84,50,29.98,29.88,4,1,0,0.00
2013-10-24,68.0,52.2,46.0,52.0,46.8,44.0,94,83,54,30.09,29.97,2,0,0,0.00
2013-10-25,72.0,54.5,40.0,53.0,46.1,38.0,95,76,50,30.18,30.08,3,0,0,0.00
2013-10-26,84.0,53.8,37.0,51.0,41.9,-99.9,95,71,29,30.15,30.00,2,0,0,0.00
2013-10-27,66.0,51.0,45.0,51.0,45.7,41.0,95,83,54,30.03,29.64,3,0,0,0.00
2013-10-28,67.0,51.6,37.0,46.0,40.8,-99.9,93,71,46,29.83,29.66,3,1,0,0.00